<?xml version="1.0"?>
<gpx xmlns="http://www.topografix.com/GPX/1/1" xmlns:xsi="http://www.w3.org/2001/XMLSchema-instance" version="1.1" creator="GPX RubyGem 1.0.0 -- http://dougfales.github.io/gpx/" xsi:schemaLocation="http://www.topografix.com/GPX/1/1 http://www.topografix.com/GPX/1/1/gpx.xsd">
  <metadata>
    <name/>
    <time>2026-05-09T21:41:30+00:00</time>
    <bound minlat="90.0" minlon="180.0" maxlat="-90.0" maxlon="-180.0"/>
  </metadata>
  <trk>
    <name/>
    <trkseg>
      <trkpt lat="43.701637" lon="3.85646">
        <time>1970-01-01T00:00:00+00:00</time>
        <ele>60.0</ele>
      </trkpt>
      <trkpt lat="43.701637" lon="3.856446">
        <time>1970-01-01T00:00:00+00:00</time>
        <ele>60.0</ele>
      </trkpt>
      <trkpt lat="43.701657" lon="3.856301">
        <time>1970-01-01T00:00:00+00:00</time>
        <ele>60.0</ele>
      </trkpt>
      <trkpt lat="43.701699" lon="3.856314">
        <time>1970-01-01T00:00:00+00:00</time>
        <ele>60.0</ele>
      </trkpt>
      <trkpt lat="43.702606" lon="3.856672">
        <time>1970-01-01T00:00:00+00:00</time>
        <ele>60.0</ele>
      </trkpt>
      <trkpt lat="43.703419" lon="3.856991">
        <time>1970-01-01T00:00:00+00:00</time>
        <ele>60.0</ele>
      </trkpt>
      <trkpt lat="43.703491" lon="3.857017">
        <time>1970-01-01T00:00:00+00:00</time>
        <ele>60.0</ele>
      </trkpt>
      <trkpt lat="43.703535" lon="3.857037">
        <time>1970-01-01T00:00:00+00:00</time>
        <ele>60.0</ele>
      </trkpt>
      <trkpt lat="43.703609" lon="3.857087">
        <time>1970-01-01T00:00:00+00:00</time>
        <ele>59.0</ele>
      </trkpt>
      <trkpt lat="43.70367" lon="3.857162">
        <time>1970-01-01T00:00:00+00:00</time>
        <ele>59.0</ele>
      </trkpt>
      <trkpt lat="43.703739" lon="3.857363">
        <time>1970-01-01T00:00:00+00:00</time>
        <ele>60.0</ele>
      </trkpt>
      <trkpt lat="43.70412" lon="3.858816">
        <time>1970-01-01T00:00:00+00:00</time>
        <ele>61.0</ele>
      </trkpt>
      <trkpt lat="43.704142" lon="3.858846">
        <time>1970-01-01T00:00:00+00:00</time>
        <ele>61.0</ele>
      </trkpt>
      <trkpt lat="43.704265" lon="3.858765">
        <time>1970-01-01T00:00:00+00:00</time>
        <ele>62.0</ele>
      </trkpt>
      <trkpt lat="43.704433" lon="3.858744">
        <time>1970-01-01T00:00:00+00:00</time>
        <ele>63.0</ele>
      </trkpt>
      <trkpt lat="43.705166" lon="3.859031">
        <time>1970-01-01T00:00:00+00:00</time>
        <ele>63.0</ele>
      </trkpt>
      <trkpt lat="43.705311" lon="3.859064">
        <time>1970-01-01T00:00:00+00:00</time>
        <ele>64.0</ele>
      </trkpt>
      <trkpt lat="43.705944" lon="3.859073">
        <time>1970-01-01T00:00:00+00:00</time>
        <ele>62.0</ele>
      </trkpt>
      <trkpt lat="43.70611" lon="3.859097">
        <time>1970-01-01T00:00:00+00:00</time>
        <ele>62.0</ele>
      </trkpt>
      <trkpt lat="43.707004" lon="3.858977">
        <time>1970-01-01T00:00:00+00:00</time>
        <ele>62.0</ele>
      </trkpt>
      <trkpt lat="43.707043" lon="3.858972">
        <time>1970-01-01T00:00:00+00:00</time>
        <ele>62.0</ele>
      </trkpt>
      <trkpt lat="43.707324" lon="3.858819">
        <time>1970-01-01T00:00:00+00:00</time>
        <ele>62.0</ele>
      </trkpt>
      <trkpt lat="43.707555" lon="3.858732">
        <time>1970-01-01T00:00:00+00:00</time>
        <ele>62.0</ele>
      </trkpt>
      <trkpt lat="43.707781" lon="3.858698">
        <time>1970-01-01T00:00:00+00:00</time>
        <ele>62.0</ele>
      </trkpt>
      <trkpt lat="43.707967" lon="3.858713">
        <time>1970-01-01T00:00:00+00:00</time>
        <ele>63.0</ele>
      </trkpt>
      <trkpt lat="43.70804" lon="3.858738">
        <time>1970-01-01T00:00:00+00:00</time>
        <ele>64.0</ele>
      </trkpt>
      <trkpt lat="43.708186" lon="3.858854">
        <time>1970-01-01T00:00:00+00:00</time>
        <ele>64.0</ele>
      </trkpt>
      <trkpt lat="43.708328" lon="3.858864">
        <time>1970-01-01T00:00:00+00:00</time>
        <ele>63.0</ele>
      </trkpt>
      <trkpt lat="43.708487" lon="3.858814">
        <time>1970-01-01T00:00:00+00:00</time>
        <ele>62.0</ele>
      </trkpt>
      <trkpt lat="43.709217" lon="3.858498">
        <time>1970-01-01T00:00:00+00:00</time>
        <ele>62.0</ele>
      </trkpt>
      <trkpt lat="43.709203" lon="3.858406">
        <time>1970-01-01T00:00:00+00:00</time>
        <ele>62.0</ele>
      </trkpt>
      <trkpt lat="43.709159" lon="3.858335">
        <time>1970-01-01T00:00:00+00:00</time>
        <ele>61.0</ele>
      </trkpt>
      <trkpt lat="43.70914" lon="3.857992">
        <time>1970-01-01T00:00:00+00:00</time>
        <ele>61.0</ele>
      </trkpt>
      <trkpt lat="43.709143" lon="3.85775">
        <time>1970-01-01T00:00:00+00:00</time>
        <ele>60.0</ele>
      </trkpt>
      <trkpt lat="43.709189" lon="3.857717">
        <time>1970-01-01T00:00:00+00:00</time>
        <ele>60.0</ele>
      </trkpt>
      <trkpt lat="43.709589" lon="3.857702">
        <time>1970-01-01T00:00:00+00:00</time>
        <ele>60.0</ele>
      </trkpt>
      <trkpt lat="43.710087" lon="3.857636">
        <time>1970-01-01T00:00:00+00:00</time>
        <ele>60.0</ele>
      </trkpt>
      <trkpt lat="43.710276" lon="3.857579">
        <time>1970-01-01T00:00:00+00:00</time>
        <ele>60.0</ele>
      </trkpt>
      <trkpt lat="43.710403" lon="3.857564">
        <time>1970-01-01T00:00:00+00:00</time>
        <ele>60.0</ele>
      </trkpt>
      <trkpt lat="43.710546" lon="3.857582">
        <time>1970-01-01T00:00:00+00:00</time>
        <ele>60.0</ele>
      </trkpt>
      <trkpt lat="43.710809" lon="3.857578">
        <time>1970-01-01T00:00:00+00:00</time>
        <ele>60.0</ele>
      </trkpt>
      <trkpt lat="43.710815" lon="3.857523">
        <time>1970-01-01T00:00:00+00:00</time>
        <ele>60.0</ele>
      </trkpt>
      <trkpt lat="43.710821" lon="3.8574">
        <time>1970-01-01T00:00:00+00:00</time>
        <ele>60.0</ele>
      </trkpt>
      <trkpt lat="43.710829" lon="3.857191">
        <time>1970-01-01T00:00:00+00:00</time>
        <ele>60.0</ele>
      </trkpt>
      <trkpt lat="43.710875" lon="3.857076">
        <time>1970-01-01T00:00:00+00:00</time>
        <ele>60.0</ele>
      </trkpt>
      <trkpt lat="43.711152" lon="3.856993">
        <time>1970-01-01T00:00:00+00:00</time>
        <ele>59.0</ele>
      </trkpt>
      <trkpt lat="43.711483" lon="3.856851">
        <time>1970-01-01T00:00:00+00:00</time>
        <ele>60.0</ele>
      </trkpt>
      <trkpt lat="43.711675" lon="3.856744">
        <time>1970-01-01T00:00:00+00:00</time>
        <ele>59.0</ele>
      </trkpt>
      <trkpt lat="43.712086" lon="3.856376">
        <time>1970-01-01T00:00:00+00:00</time>
        <ele>60.0</ele>
      </trkpt>
      <trkpt lat="43.712329" lon="3.856127">
        <time>1970-01-01T00:00:00+00:00</time>
        <ele>60.0</ele>
      </trkpt>
      <trkpt lat="43.712761" lon="3.855788">
        <time>1970-01-01T00:00:00+00:00</time>
        <ele>60.0</ele>
      </trkpt>
      <trkpt lat="43.713218" lon="3.855531">
        <time>1970-01-01T00:00:00+00:00</time>
        <ele>60.0</ele>
      </trkpt>
      <trkpt lat="43.713435" lon="3.855388">
        <time>1970-01-01T00:00:00+00:00</time>
        <ele>60.0</ele>
      </trkpt>
      <trkpt lat="43.713949" lon="3.854961">
        <time>1970-01-01T00:00:00+00:00</time>
        <ele>60.0</ele>
      </trkpt>
      <trkpt lat="43.714186" lon="3.854712">
        <time>1970-01-01T00:00:00+00:00</time>
        <ele>60.0</ele>
      </trkpt>
      <trkpt lat="43.714415" lon="3.854507">
        <time>1970-01-01T00:00:00+00:00</time>
        <ele>60.0</ele>
      </trkpt>
      <trkpt lat="43.714563" lon="3.85427">
        <time>1970-01-01T00:00:00+00:00</time>
        <ele>60.0</ele>
      </trkpt>
      <trkpt lat="43.71464" lon="3.854226">
        <time>1970-01-01T00:00:00+00:00</time>
        <ele>60.0</ele>
      </trkpt>
      <trkpt lat="43.714718" lon="3.854123">
        <time>1970-01-01T00:00:00+00:00</time>
        <ele>61.0</ele>
      </trkpt>
      <trkpt lat="43.71478" lon="3.853993">
        <time>1970-01-01T00:00:00+00:00</time>
        <ele>60.0</ele>
      </trkpt>
      <trkpt lat="43.71538" lon="3.854155">
        <time>1970-01-01T00:00:00+00:00</time>
        <ele>62.0</ele>
      </trkpt>
      <trkpt lat="43.715549" lon="3.854187">
        <time>1970-01-01T00:00:00+00:00</time>
        <ele>62.0</ele>
      </trkpt>
      <trkpt lat="43.715646" lon="3.854179">
        <time>1970-01-01T00:00:00+00:00</time>
        <ele>63.0</ele>
      </trkpt>
      <trkpt lat="43.715759" lon="3.854215">
        <time>1970-01-01T00:00:00+00:00</time>
        <ele>64.0</ele>
      </trkpt>
      <trkpt lat="43.716504" lon="3.851011">
        <time>1970-01-01T00:00:00+00:00</time>
        <ele>63.0</ele>
      </trkpt>
      <trkpt lat="43.716524" lon="3.85094">
        <time>1970-01-01T00:00:00+00:00</time>
        <ele>63.0</ele>
      </trkpt>
      <trkpt lat="43.716572" lon="3.850874">
        <time>1970-01-01T00:00:00+00:00</time>
        <ele>63.0</ele>
      </trkpt>
      <trkpt lat="43.716469" lon="3.850546">
        <time>1970-01-01T00:00:00+00:00</time>
        <ele>63.0</ele>
      </trkpt>
      <trkpt lat="43.716321" lon="3.849735">
        <time>1970-01-01T00:00:00+00:00</time>
        <ele>61.0</ele>
      </trkpt>
      <trkpt lat="43.716212" lon="3.849453">
        <time>1970-01-01T00:00:00+00:00</time>
        <ele>61.0</ele>
      </trkpt>
      <trkpt lat="43.716189" lon="3.849201">
        <time>1970-01-01T00:00:00+00:00</time>
        <ele>61.0</ele>
      </trkpt>
      <trkpt lat="43.716107" lon="3.849135">
        <time>1970-01-01T00:00:00+00:00</time>
        <ele>61.0</ele>
      </trkpt>
      <trkpt lat="43.715974" lon="3.849016">
        <time>1970-01-01T00:00:00+00:00</time>
        <ele>62.0</ele>
      </trkpt>
      <trkpt lat="43.715881" lon="3.848916">
        <time>1970-01-01T00:00:00+00:00</time>
        <ele>63.0</ele>
      </trkpt>
      <trkpt lat="43.715943" lon="3.848498">
        <time>1970-01-01T00:00:00+00:00</time>
        <ele>66.0</ele>
      </trkpt>
      <trkpt lat="43.716079" lon="3.847769">
        <time>1970-01-01T00:00:00+00:00</time>
        <ele>67.0</ele>
      </trkpt>
      <trkpt lat="43.716086" lon="3.847619">
        <time>1970-01-01T00:00:00+00:00</time>
        <ele>68.0</ele>
      </trkpt>
      <trkpt lat="43.71605" lon="3.847508">
        <time>1970-01-01T00:00:00+00:00</time>
        <ele>69.0</ele>
      </trkpt>
      <trkpt lat="43.715998" lon="3.847737">
        <time>1970-01-01T00:00:00+00:00</time>
        <ele>70.0</ele>
      </trkpt>
      <trkpt lat="43.715904" lon="3.848405">
        <time>1970-01-01T00:00:00+00:00</time>
        <ele>68.0</ele>
      </trkpt>
      <trkpt lat="43.715818" lon="3.848722">
        <time>1970-01-01T00:00:00+00:00</time>
        <ele>65.0</ele>
      </trkpt>
      <trkpt lat="43.715708" lon="3.848996">
        <time>1970-01-01T00:00:00+00:00</time>
        <ele>64.0</ele>
      </trkpt>
      <trkpt lat="43.715484" lon="3.849258">
        <time>1970-01-01T00:00:00+00:00</time>
        <ele>63.0</ele>
      </trkpt>
      <trkpt lat="43.714776" lon="3.850001">
        <time>1970-01-01T00:00:00+00:00</time>
        <ele>62.0</ele>
      </trkpt>
      <trkpt lat="43.714021" lon="3.850751">
        <time>1970-01-01T00:00:00+00:00</time>
        <ele>62.0</ele>
      </trkpt>
      <trkpt lat="43.713722" lon="3.851171">
        <time>1970-01-01T00:00:00+00:00</time>
        <ele>62.0</ele>
      </trkpt>
      <trkpt lat="43.713527" lon="3.851401">
        <time>1970-01-01T00:00:00+00:00</time>
        <ele>62.0</ele>
      </trkpt>
      <trkpt lat="43.713122" lon="3.851598">
        <time>1970-01-01T00:00:00+00:00</time>
        <ele>62.0</ele>
      </trkpt>
      <trkpt lat="43.711265" lon="3.852338">
        <time>1970-01-01T00:00:00+00:00</time>
        <ele>64.0</ele>
      </trkpt>
      <trkpt lat="43.710431" lon="3.852646">
        <time>1970-01-01T00:00:00+00:00</time>
        <ele>62.0</ele>
      </trkpt>
      <trkpt lat="43.709499" lon="3.852842">
        <time>1970-01-01T00:00:00+00:00</time>
        <ele>61.0</ele>
      </trkpt>
      <trkpt lat="43.708844" lon="3.853089">
        <time>1970-01-01T00:00:00+00:00</time>
        <ele>62.0</ele>
      </trkpt>
      <trkpt lat="43.707508" lon="3.853311">
        <time>1970-01-01T00:00:00+00:00</time>
        <ele>63.0</ele>
      </trkpt>
      <trkpt lat="43.707329" lon="3.853325">
        <time>1970-01-01T00:00:00+00:00</time>
        <ele>63.0</ele>
      </trkpt>
      <trkpt lat="43.706398" lon="3.85336">
        <time>1970-01-01T00:00:00+00:00</time>
        <ele>63.0</ele>
      </trkpt>
      <trkpt lat="43.706402" lon="3.853397">
        <time>1970-01-01T00:00:00+00:00</time>
        <ele>63.0</ele>
      </trkpt>
      <trkpt lat="43.706469" lon="3.853458">
        <time>1970-01-01T00:00:00+00:00</time>
        <ele>63.0</ele>
      </trkpt>
      <trkpt lat="43.707083" lon="3.85345">
        <time>1970-01-01T00:00:00+00:00</time>
        <ele>63.0</ele>
      </trkpt>
      <trkpt lat="43.707158" lon="3.853482">
        <time>1970-01-01T00:00:00+00:00</time>
        <ele>63.0</ele>
      </trkpt>
      <trkpt lat="43.707246" lon="3.853571">
        <time>1970-01-01T00:00:00+00:00</time>
        <ele>63.0</ele>
      </trkpt>
      <trkpt lat="43.707384" lon="3.85395">
        <time>1970-01-01T00:00:00+00:00</time>
        <ele>62.0</ele>
      </trkpt>
      <trkpt lat="43.707499" lon="3.85436">
        <time>1970-01-01T00:00:00+00:00</time>
        <ele>62.0</ele>
      </trkpt>
      <trkpt lat="43.707511" lon="3.85463">
        <time>1970-01-01T00:00:00+00:00</time>
        <ele>62.0</ele>
      </trkpt>
      <trkpt lat="43.707474" lon="3.855106">
        <time>1970-01-01T00:00:00+00:00</time>
        <ele>61.0</ele>
      </trkpt>
      <trkpt lat="43.707474" lon="3.855106">
        <time>1970-01-01T00:00:00+00:00</time>
        <ele>61.0</ele>
      </trkpt>
      <trkpt lat="43.707511" lon="3.85463">
        <time>1970-01-01T00:00:00+00:00</time>
        <ele>62.0</ele>
      </trkpt>
      <trkpt lat="43.707499" lon="3.85436">
        <time>1970-01-01T00:00:00+00:00</time>
        <ele>62.0</ele>
      </trkpt>
      <trkpt lat="43.707384" lon="3.85395">
        <time>1970-01-01T00:00:00+00:00</time>
        <ele>62.0</ele>
      </trkpt>
      <trkpt lat="43.707246" lon="3.853571">
        <time>1970-01-01T00:00:00+00:00</time>
        <ele>63.0</ele>
      </trkpt>
      <trkpt lat="43.707158" lon="3.853482">
        <time>1970-01-01T00:00:00+00:00</time>
        <ele>63.0</ele>
      </trkpt>
      <trkpt lat="43.707083" lon="3.85345">
        <time>1970-01-01T00:00:00+00:00</time>
        <ele>63.0</ele>
      </trkpt>
      <trkpt lat="43.706469" lon="3.853458">
        <time>1970-01-01T00:00:00+00:00</time>
        <ele>63.0</ele>
      </trkpt>
      <trkpt lat="43.706402" lon="3.853397">
        <time>1970-01-01T00:00:00+00:00</time>
        <ele>63.0</ele>
      </trkpt>
      <trkpt lat="43.706398" lon="3.85336">
        <time>1970-01-01T00:00:00+00:00</time>
        <ele>63.0</ele>
      </trkpt>
      <trkpt lat="43.707329" lon="3.853325">
        <time>1970-01-01T00:00:00+00:00</time>
        <ele>63.0</ele>
      </trkpt>
      <trkpt lat="43.70736" lon="3.853211">
        <time>1970-01-01T00:00:00+00:00</time>
        <ele>64.0</ele>
      </trkpt>
      <trkpt lat="43.707467" lon="3.853186">
        <time>1970-01-01T00:00:00+00:00</time>
        <ele>64.0</ele>
      </trkpt>
      <trkpt lat="43.707643" lon="3.853179">
        <time>1970-01-01T00:00:00+00:00</time>
        <ele>64.0</ele>
      </trkpt>
      <trkpt lat="43.707757" lon="3.853147">
        <time>1970-01-01T00:00:00+00:00</time>
        <ele>63.0</ele>
      </trkpt>
      <trkpt lat="43.707779" lon="3.85305">
        <time>1970-01-01T00:00:00+00:00</time>
        <ele>64.0</ele>
      </trkpt>
      <trkpt lat="43.707753" lon="3.852776">
        <time>1970-01-01T00:00:00+00:00</time>
        <ele>64.0</ele>
      </trkpt>
      <trkpt lat="43.707292" lon="3.849187">
        <time>1970-01-01T00:00:00+00:00</time>
        <ele>70.0</ele>
      </trkpt>
      <trkpt lat="43.707191" lon="3.848493">
        <time>1970-01-01T00:00:00+00:00</time>
        <ele>71.0</ele>
      </trkpt>
      <trkpt lat="43.70692" lon="3.846319">
        <time>1970-01-01T00:00:00+00:00</time>
        <ele>76.0</ele>
      </trkpt>
      <trkpt lat="43.706756" lon="3.845139">
        <time>1970-01-01T00:00:00+00:00</time>
        <ele>80.0</ele>
      </trkpt>
      <trkpt lat="43.706764" lon="3.84497">
        <time>1970-01-01T00:00:00+00:00</time>
        <ele>81.0</ele>
      </trkpt>
      <trkpt lat="43.706792" lon="3.844889">
        <time>1970-01-01T00:00:00+00:00</time>
        <ele>81.0</ele>
      </trkpt>
      <trkpt lat="43.706834" lon="3.844856">
        <time>1970-01-01T00:00:00+00:00</time>
        <ele>81.0</ele>
      </trkpt>
      <trkpt lat="43.706867" lon="3.844856">
        <time>1970-01-01T00:00:00+00:00</time>
        <ele>81.0</ele>
      </trkpt>
      <trkpt lat="43.706926" lon="3.844912">
        <time>1970-01-01T00:00:00+00:00</time>
        <ele>82.0</ele>
      </trkpt>
      <trkpt lat="43.706995" lon="3.844905">
        <time>1970-01-01T00:00:00+00:00</time>
        <ele>82.0</ele>
      </trkpt>
      <trkpt lat="43.707048" lon="3.844877">
        <time>1970-01-01T00:00:00+00:00</time>
        <ele>82.0</ele>
      </trkpt>
      <trkpt lat="43.70716" lon="3.84472">
        <time>1970-01-01T00:00:00+00:00</time>
        <ele>84.0</ele>
      </trkpt>
      <trkpt lat="43.707168" lon="3.844659">
        <time>1970-01-01T00:00:00+00:00</time>
        <ele>84.0</ele>
      </trkpt>
      <trkpt lat="43.70715" lon="3.844458">
        <time>1970-01-01T00:00:00+00:00</time>
        <ele>84.0</ele>
      </trkpt>
      <trkpt lat="43.707165" lon="3.844412">
        <time>1970-01-01T00:00:00+00:00</time>
        <ele>84.0</ele>
      </trkpt>
      <trkpt lat="43.70724" lon="3.844362">
        <time>1970-01-01T00:00:00+00:00</time>
        <ele>85.0</ele>
      </trkpt>
      <trkpt lat="43.707247" lon="3.844306">
        <time>1970-01-01T00:00:00+00:00</time>
        <ele>85.0</ele>
      </trkpt>
      <trkpt lat="43.707307" lon="3.844176">
        <time>1970-01-01T00:00:00+00:00</time>
        <ele>86.0</ele>
      </trkpt>
      <trkpt lat="43.707354" lon="3.844109">
        <time>1970-01-01T00:00:00+00:00</time>
        <ele>86.0</ele>
      </trkpt>
      <trkpt lat="43.707465" lon="3.844057">
        <time>1970-01-01T00:00:00+00:00</time>
        <ele>88.0</ele>
      </trkpt>
      <trkpt lat="43.707629" lon="3.843859">
        <time>1970-01-01T00:00:00+00:00</time>
        <ele>88.0</ele>
      </trkpt>
      <trkpt lat="43.70812" lon="3.843104">
        <time>1970-01-01T00:00:00+00:00</time>
        <ele>94.0</ele>
      </trkpt>
      <trkpt lat="43.708193" lon="3.843025">
        <time>1970-01-01T00:00:00+00:00</time>
        <ele>96.0</ele>
      </trkpt>
      <trkpt lat="43.708415" lon="3.842964">
        <time>1970-01-01T00:00:00+00:00</time>
        <ele>99.0</ele>
      </trkpt>
      <trkpt lat="43.708516" lon="3.842912">
        <time>1970-01-01T00:00:00+00:00</time>
        <ele>100.0</ele>
      </trkpt>
      <trkpt lat="43.708642" lon="3.842856">
        <time>1970-01-01T00:00:00+00:00</time>
        <ele>101.0</ele>
      </trkpt>
      <trkpt lat="43.708724" lon="3.842821">
        <time>1970-01-01T00:00:00+00:00</time>
        <ele>102.0</ele>
      </trkpt>
      <trkpt lat="43.708829" lon="3.84283">
        <time>1970-01-01T00:00:00+00:00</time>
        <ele>103.0</ele>
      </trkpt>
      <trkpt lat="43.709037" lon="3.842912">
        <time>1970-01-01T00:00:00+00:00</time>
        <ele>105.0</ele>
      </trkpt>
      <trkpt lat="43.709155" lon="3.842928">
        <time>1970-01-01T00:00:00+00:00</time>
        <ele>106.0</ele>
      </trkpt>
      <trkpt lat="43.709179" lon="3.842903">
        <time>1970-01-01T00:00:00+00:00</time>
        <ele>106.0</ele>
      </trkpt>
      <trkpt lat="43.709215" lon="3.842807">
        <time>1970-01-01T00:00:00+00:00</time>
        <ele>106.0</ele>
      </trkpt>
      <trkpt lat="43.709212" lon="3.842661">
        <time>1970-01-01T00:00:00+00:00</time>
        <ele>106.0</ele>
      </trkpt>
      <trkpt lat="43.709164" lon="3.842402">
        <time>1970-01-01T00:00:00+00:00</time>
        <ele>107.0</ele>
      </trkpt>
      <trkpt lat="43.709065" lon="3.842144">
        <time>1970-01-01T00:00:00+00:00</time>
        <ele>108.0</ele>
      </trkpt>
      <trkpt lat="43.709033" lon="3.841924">
        <time>1970-01-01T00:00:00+00:00</time>
        <ele>110.0</ele>
      </trkpt>
      <trkpt lat="43.708977" lon="3.841793">
        <time>1970-01-01T00:00:00+00:00</time>
        <ele>111.0</ele>
      </trkpt>
      <trkpt lat="43.708772" lon="3.841462">
        <time>1970-01-01T00:00:00+00:00</time>
        <ele>113.0</ele>
      </trkpt>
      <trkpt lat="43.708679" lon="3.841397">
        <time>1970-01-01T00:00:00+00:00</time>
        <ele>114.0</ele>
      </trkpt>
      <trkpt lat="43.7084" lon="3.84112">
        <time>1970-01-01T00:00:00+00:00</time>
        <ele>117.0</ele>
      </trkpt>
      <trkpt lat="43.708302" lon="3.840949">
        <time>1970-01-01T00:00:00+00:00</time>
        <ele>117.0</ele>
      </trkpt>
      <trkpt lat="43.708273" lon="3.840853">
        <time>1970-01-01T00:00:00+00:00</time>
        <ele>117.0</ele>
      </trkpt>
      <trkpt lat="43.708638" lon="3.840291">
        <time>1970-01-01T00:00:00+00:00</time>
        <ele>119.0</ele>
      </trkpt>
      <trkpt lat="43.70853" lon="3.840036">
        <time>1970-01-01T00:00:00+00:00</time>
        <ele>119.0</ele>
      </trkpt>
      <trkpt lat="43.70839" lon="3.83986">
        <time>1970-01-01T00:00:00+00:00</time>
        <ele>118.0</ele>
      </trkpt>
      <trkpt lat="43.70834" lon="3.839732">
        <time>1970-01-01T00:00:00+00:00</time>
        <ele>117.0</ele>
      </trkpt>
      <trkpt lat="43.708236" lon="3.839648">
        <time>1970-01-01T00:00:00+00:00</time>
        <ele>115.0</ele>
      </trkpt>
      <trkpt lat="43.708138" lon="3.839504">
        <time>1970-01-01T00:00:00+00:00</time>
        <ele>114.0</ele>
      </trkpt>
      <trkpt lat="43.708061" lon="3.839485">
        <time>1970-01-01T00:00:00+00:00</time>
        <ele>113.0</ele>
      </trkpt>
      <trkpt lat="43.707953" lon="3.83939">
        <time>1970-01-01T00:00:00+00:00</time>
        <ele>111.0</ele>
      </trkpt>
      <trkpt lat="43.707871" lon="3.839231">
        <time>1970-01-01T00:00:00+00:00</time>
        <ele>109.0</ele>
      </trkpt>
      <trkpt lat="43.707762" lon="3.839186">
        <time>1970-01-01T00:00:00+00:00</time>
        <ele>109.0</ele>
      </trkpt>
      <trkpt lat="43.707647" lon="3.839216">
        <time>1970-01-01T00:00:00+00:00</time>
        <ele>109.0</ele>
      </trkpt>
      <trkpt lat="43.707522" lon="3.839135">
        <time>1970-01-01T00:00:00+00:00</time>
        <ele>109.0</ele>
      </trkpt>
      <trkpt lat="43.706909" lon="3.838869">
        <time>1970-01-01T00:00:00+00:00</time>
        <ele>112.0</ele>
      </trkpt>
      <trkpt lat="43.706833" lon="3.838802">
        <time>1970-01-01T00:00:00+00:00</time>
        <ele>113.0</ele>
      </trkpt>
      <trkpt lat="43.7067" lon="3.838401">
        <time>1970-01-01T00:00:00+00:00</time>
        <ele>111.0</ele>
      </trkpt>
      <trkpt lat="43.706619" lon="3.838203">
        <time>1970-01-01T00:00:00+00:00</time>
        <ele>110.0</ele>
      </trkpt>
      <trkpt lat="43.706504" lon="3.8381">
        <time>1970-01-01T00:00:00+00:00</time>
        <ele>108.0</ele>
      </trkpt>
      <trkpt lat="43.706449" lon="3.837961">
        <time>1970-01-01T00:00:00+00:00</time>
        <ele>106.0</ele>
      </trkpt>
      <trkpt lat="43.706196" lon="3.837572">
        <time>1970-01-01T00:00:00+00:00</time>
        <ele>102.0</ele>
      </trkpt>
      <trkpt lat="43.706057" lon="3.837489">
        <time>1970-01-01T00:00:00+00:00</time>
        <ele>102.0</ele>
      </trkpt>
      <trkpt lat="43.705848" lon="3.837522">
        <time>1970-01-01T00:00:00+00:00</time>
        <ele>104.0</ele>
      </trkpt>
      <trkpt lat="43.705656" lon="3.837466">
        <time>1970-01-01T00:00:00+00:00</time>
        <ele>106.0</ele>
      </trkpt>
      <trkpt lat="43.705418" lon="3.837435">
        <time>1970-01-01T00:00:00+00:00</time>
        <ele>107.0</ele>
      </trkpt>
      <trkpt lat="43.705206" lon="3.837326">
        <time>1970-01-01T00:00:00+00:00</time>
        <ele>108.0</ele>
      </trkpt>
      <trkpt lat="43.705088" lon="3.837233">
        <time>1970-01-01T00:00:00+00:00</time>
        <ele>107.0</ele>
      </trkpt>
      <trkpt lat="43.705017" lon="3.837105">
        <time>1970-01-01T00:00:00+00:00</time>
        <ele>106.0</ele>
      </trkpt>
      <trkpt lat="43.705023" lon="3.837031">
        <time>1970-01-01T00:00:00+00:00</time>
        <ele>107.0</ele>
      </trkpt>
      <trkpt lat="43.705106" lon="3.83678">
        <time>1970-01-01T00:00:00+00:00</time>
        <ele>108.0</ele>
      </trkpt>
      <trkpt lat="43.705129" lon="3.836559">
        <time>1970-01-01T00:00:00+00:00</time>
        <ele>108.0</ele>
      </trkpt>
      <trkpt lat="43.70526" lon="3.836165">
        <time>1970-01-01T00:00:00+00:00</time>
        <ele>107.0</ele>
      </trkpt>
      <trkpt lat="43.705045" lon="3.83585">
        <time>1970-01-01T00:00:00+00:00</time>
        <ele>105.0</ele>
      </trkpt>
      <trkpt lat="43.704952" lon="3.835666">
        <time>1970-01-01T00:00:00+00:00</time>
        <ele>103.0</ele>
      </trkpt>
      <trkpt lat="43.704933" lon="3.835486">
        <time>1970-01-01T00:00:00+00:00</time>
        <ele>103.0</ele>
      </trkpt>
      <trkpt lat="43.704891" lon="3.835387">
        <time>1970-01-01T00:00:00+00:00</time>
        <ele>103.0</ele>
      </trkpt>
      <trkpt lat="43.704876" lon="3.835298">
        <time>1970-01-01T00:00:00+00:00</time>
        <ele>103.0</ele>
      </trkpt>
      <trkpt lat="43.704827" lon="3.835225">
        <time>1970-01-01T00:00:00+00:00</time>
        <ele>102.0</ele>
      </trkpt>
      <trkpt lat="43.704787" lon="3.835292">
        <time>1970-01-01T00:00:00+00:00</time>
        <ele>103.0</ele>
      </trkpt>
      <trkpt lat="43.704676" lon="3.835578">
        <time>1970-01-01T00:00:00+00:00</time>
        <ele>102.0</ele>
      </trkpt>
      <trkpt lat="43.704656" lon="3.835591">
        <time>1970-01-01T00:00:00+00:00</time>
        <ele>102.0</ele>
      </trkpt>
      <trkpt lat="43.70463" lon="3.835571">
        <time>1970-01-01T00:00:00+00:00</time>
        <ele>102.0</ele>
      </trkpt>
      <trkpt lat="43.704545" lon="3.835824">
        <time>1970-01-01T00:00:00+00:00</time>
        <ele>101.0</ele>
      </trkpt>
      <trkpt lat="43.704527" lon="3.835935">
        <time>1970-01-01T00:00:00+00:00</time>
        <ele>101.0</ele>
      </trkpt>
      <trkpt lat="43.704492" lon="3.836">
        <time>1970-01-01T00:00:00+00:00</time>
        <ele>101.0</ele>
      </trkpt>
      <trkpt lat="43.70446" lon="3.836022">
        <time>1970-01-01T00:00:00+00:00</time>
        <ele>100.0</ele>
      </trkpt>
      <trkpt lat="43.704435" lon="3.836101">
        <time>1970-01-01T00:00:00+00:00</time>
        <ele>100.0</ele>
      </trkpt>
      <trkpt lat="43.70439" lon="3.836324">
        <time>1970-01-01T00:00:00+00:00</time>
        <ele>100.0</ele>
      </trkpt>
      <trkpt lat="43.7043" lon="3.837132">
        <time>1970-01-01T00:00:00+00:00</time>
        <ele>98.0</ele>
      </trkpt>
      <trkpt lat="43.704295" lon="3.8372">
        <time>1970-01-01T00:00:00+00:00</time>
        <ele>98.0</ele>
      </trkpt>
      <trkpt lat="43.704266" lon="3.837558">
        <time>1970-01-01T00:00:00+00:00</time>
        <ele>97.0</ele>
      </trkpt>
      <trkpt lat="43.704291" lon="3.837998">
        <time>1970-01-01T00:00:00+00:00</time>
        <ele>97.0</ele>
      </trkpt>
      <trkpt lat="43.70441" lon="3.838523">
        <time>1970-01-01T00:00:00+00:00</time>
        <ele>96.0</ele>
      </trkpt>
      <trkpt lat="43.704468" lon="3.838896">
        <time>1970-01-01T00:00:00+00:00</time>
        <ele>95.0</ele>
      </trkpt>
      <trkpt lat="43.704494" lon="3.839813">
        <time>1970-01-01T00:00:00+00:00</time>
        <ele>93.0</ele>
      </trkpt>
      <trkpt lat="43.704564" lon="3.840396">
        <time>1970-01-01T00:00:00+00:00</time>
        <ele>93.0</ele>
      </trkpt>
      <trkpt lat="43.704652" lon="3.840772">
        <time>1970-01-01T00:00:00+00:00</time>
        <ele>93.0</ele>
      </trkpt>
      <trkpt lat="43.704919" lon="3.841572">
        <time>1970-01-01T00:00:00+00:00</time>
        <ele>90.0</ele>
      </trkpt>
      <trkpt lat="43.70498" lon="3.841878">
        <time>1970-01-01T00:00:00+00:00</time>
        <ele>88.0</ele>
      </trkpt>
      <trkpt lat="43.704993" lon="3.842135">
        <time>1970-01-01T00:00:00+00:00</time>
        <ele>88.0</ele>
      </trkpt>
      <trkpt lat="43.704973" lon="3.842373">
        <time>1970-01-01T00:00:00+00:00</time>
        <ele>88.0</ele>
      </trkpt>
      <trkpt lat="43.70484" lon="3.842874">
        <time>1970-01-01T00:00:00+00:00</time>
        <ele>90.0</ele>
      </trkpt>
      <trkpt lat="43.704753" lon="3.843262">
        <time>1970-01-01T00:00:00+00:00</time>
        <ele>90.0</ele>
      </trkpt>
      <trkpt lat="43.704616" lon="3.844657">
        <time>1970-01-01T00:00:00+00:00</time>
        <ele>87.0</ele>
      </trkpt>
      <trkpt lat="43.704523" lon="3.845155">
        <time>1970-01-01T00:00:00+00:00</time>
        <ele>86.0</ele>
      </trkpt>
      <trkpt lat="43.704238" lon="3.846475">
        <time>1970-01-01T00:00:00+00:00</time>
        <ele>85.0</ele>
      </trkpt>
      <trkpt lat="43.70391" lon="3.84751">
        <time>1970-01-01T00:00:00+00:00</time>
        <ele>83.0</ele>
      </trkpt>
      <trkpt lat="43.703803" lon="3.847921">
        <time>1970-01-01T00:00:00+00:00</time>
        <ele>82.0</ele>
      </trkpt>
      <trkpt lat="43.703203" lon="3.851179">
        <time>1970-01-01T00:00:00+00:00</time>
        <ele>74.0</ele>
      </trkpt>
      <trkpt lat="43.70305" lon="3.851897">
        <time>1970-01-01T00:00:00+00:00</time>
        <ele>70.0</ele>
      </trkpt>
      <trkpt lat="43.702858" lon="3.852528">
        <time>1970-01-01T00:00:00+00:00</time>
        <ele>68.0</ele>
      </trkpt>
      <trkpt lat="43.702716" lon="3.852848">
        <time>1970-01-01T00:00:00+00:00</time>
        <ele>67.0</ele>
      </trkpt>
      <trkpt lat="43.702484" lon="3.853221">
        <time>1970-01-01T00:00:00+00:00</time>
        <ele>66.0</ele>
      </trkpt>
      <trkpt lat="43.702182" lon="3.853597">
        <time>1970-01-01T00:00:00+00:00</time>
        <ele>64.0</ele>
      </trkpt>
      <trkpt lat="43.702073" lon="3.853805">
        <time>1970-01-01T00:00:00+00:00</time>
        <ele>63.0</ele>
      </trkpt>
      <trkpt lat="43.70204" lon="3.853902">
        <time>1970-01-01T00:00:00+00:00</time>
        <ele>63.0</ele>
      </trkpt>
      <trkpt lat="43.70203" lon="3.853967">
        <time>1970-01-01T00:00:00+00:00</time>
        <ele>63.0</ele>
      </trkpt>
      <trkpt lat="43.701993" lon="3.854043">
        <time>1970-01-01T00:00:00+00:00</time>
        <ele>63.0</ele>
      </trkpt>
      <trkpt lat="43.701951" lon="3.854144">
        <time>1970-01-01T00:00:00+00:00</time>
        <ele>62.0</ele>
      </trkpt>
      <trkpt lat="43.701956" lon="3.854408">
        <time>1970-01-01T00:00:00+00:00</time>
        <ele>61.0</ele>
      </trkpt>
      <trkpt lat="43.701936" lon="3.854552">
        <time>1970-01-01T00:00:00+00:00</time>
        <ele>61.0</ele>
      </trkpt>
      <trkpt lat="43.701692" lon="3.85609">
        <time>1970-01-01T00:00:00+00:00</time>
        <ele>60.0</ele>
      </trkpt>
      <trkpt lat="43.701662" lon="3.856267">
        <time>1970-01-01T00:00:00+00:00</time>
        <ele>60.0</ele>
      </trkpt>
      <trkpt lat="43.701657" lon="3.856301">
        <time>1970-01-01T00:00:00+00:00</time>
        <ele>60.0</ele>
      </trkpt>
      <trkpt lat="43.701637" lon="3.856446">
        <time>1970-01-01T00:00:00+00:00</time>
        <ele>60.0</ele>
      </trkpt>
      <trkpt lat="43.701637" lon="3.85646">
        <time>1970-01-01T00:00:00+00:00</time>
        <ele>60.0</ele>
      </trkpt>
    </trkseg>
  </trk>
</gpx>
